www.pogodaiklimat.ru

Погода и климат >> Архив погоды >> Россия >> Оренбургская область >> Первомайский


ПОГОДА в Первомайском

  • Прогноз погоды в Первомайском
  • Монитор погоды в Первомайском

АРХИВ ПОГОДЫ в Первомайском

Время (UTC), дата Ветер
(напр.,м/с)
 
Видим.   Явления Облачность Т
(С)
Тd
(С)
f
(%)
Тe
(С)
Тes
(С)
Комфортность P
(гПа)
Po
(гПа)
Тmin
(С)
Tmax
(С)
R
(мм)
R24
(мм)
S
(см)
21 15.09 ЮЗ 1 4000 м дымка 3/0
[Ci fib]
+9.3 +9.1 99 +9 +9 1013.2 1004.7
00 16.09 ЮЗ 1 4000 м дымка 1/0
[Ci fib]
+6.7 +6.4 98 +5 +5 1013.4 1004.9
03 16.09 Ю 1 4000 м дымка 10/0
[Ac As]
+5.4 +4.8 96 +4 +4 1014.1 1005.5 +4.8
06 16.09 ЮЗ 2 20 км 10/0
[Ac As]
+9.9 +7.8 87 +8 +10 1013.8 1005.3
09 16.09 ЮЗ 3 20 км 9/3 1000 м
[Cu med, cong Ac trans]
+16.5 +5.3 47 +16 +19 1011.9 1003.7
12 16.09 ЮЗ 4
{11}
20 км 10/3 600 м
[Sc Ac As]
+17.1 +3.5 40 +17 +17 1009.5 1001.3
15 16.09 Ю 3 10 км 9/4 600 м
[Sc Ac As]
+16.6 +4.6 45 +16 +16 1007.4 999.2 +17.6
18 16.09 Ю 4
{10}
10 км 9/3 600 м
[Sc Ac As]
+16.2 +3.7 43 +16 +16 1006.1 997.9
21 16.09 ЮЗ 3 10 км 9/4 600 м
[Sc Ac trans]
+15.6 +3.0 43 +15 +15 1004.6 996.4
00 17.09 ЮЗ 2 10 км 6/0
[Ac trans]
+13.6 +3.5 50 +13 +13 1004.9 996.6
03 17.09 штиль 0 20 км 9/0
[Ac trans]
+11.5 +5.6 67 +11 +11 1005.7 997.4 +11.2
06 17.09 Ю 2 20 км 10/0
[Ac As]
+15.9 +5.7 51 +16 +18 1006.2 998.0 +11.1
09 17.09 Ю 2 20 км 10/0
[Ac As]
+17.4 +7.2 51 +18 +20 1005.3 997.1
12 17.09 Ю 1 4000 м слаб. дождь 10/0
[As op]
+15.5 +8.8 64 +16 +17 1004.7 996.5
15 17.09 Ю 1 10 км в посл. час дождь 10/0
[Ac As]
+12.7 +10.5 86 +13 +13 1003.7 995.4 +18.4 0.8
18 17.09 ЮЗ 1 10 км {дождь} 10/0
[Ac As]
+12.8 +8.7 76 +13 +13 1004.0 995.7
21 17.09 штиль 0 4000 м слаб. дождь 10/0
[As op]
+11.8 +9.5 86 +11 +11 1003.7 995.4
00 18.09 ЮЗ 1 4000 м слаб. дождь 10/0
[As op]
+11.2 +10.3 94 +11 +11 1003.2 994.9
03 18.09 ЮЗ 1 20 км {дождь} 4/1 300 м
[Sc Ac trans]
+9.9 +9.3 96 +9 +9 1003.7 995.4 +9.9 2
06 18.09 ЮЗ 2 20 км {дождь} 8/4 300 м
[Cb cap Ac cast Ci fib]
+15.7 +11.5 76 +16 +18 1004.1 995.9
09 18.09 СЗ 4 20 км 6/5 1500 м
[Cu hum Ci fib]
+19.6 +3.6 35 +20 +23 1004.1 996.0
12 18.09 З 4 20 км 4/4 1500 м
[Cu hum]
+20.2 +0.8 27 +20 +22 1004.3 996.2
15 18.09 Ю 1 20 км 3/0
[Ci fib]
+13.3 +3.8 53 +14 +14 1004.3 996.1 +20.9
18 18.09 ЮВ 2 10 км 10/10 630 м
[Sc]
+13.9 +3.8 51 +14 +14 1002.1 993.9
21 18.09 В 1 4000 м слаб. ливневой дождь 10/10 720 м
[Cb cap]
+10.3 +9.6 95 +10 +10 997.9 989.6
00 19.09 З 5-12
{15}
10 км {ливн. осадки} 10/10 800 м
[Cb cap]
+14.1 +12.0 87 +12 +12 994.8 986.6
03 19.09 ЮЗ 5-12
{15}
20 км ясно +8.8 +5.1 78 +5 +5 998.0 989.6 +8.7 10
06 19.09 З 5-14
{16}
20 км 8/8 630 м
[Cb cap]
+10.2 +5.1 71 +7 +8 1000.3 992.0
09 19.09 З 5-15
{19}
20 км 9/9 800 м
[Cb cap]
+11.5 +5.3 66 +9 +9 1004.3 996.0
12 19.09 З 3
{15}
20 км 8/8 900 м
[Cb cap]
+13.9 +5.7 58 +13 +14 1007.9 999.6
15 19.09 З 2
{11}
20 км 3/3 600 м
[Sc diur, vesp]
+11.8 +5.3 64 +11 +11 1010.7 1002.3 +14.8
18 19.09 ЮЗ 1 10 км 4/0
[Ac trans Ci fib]
+9.6 +6.5 81 +9 +9 1012.8 1004.4
21 19.09 Ю 2 10 км ясно +6.4 +5.1 91 +4 +4 1014.0 1005.4
00 20.09 ЮЗ 1 4000 м дымка ясно +4.7 +4.1 96 +3 +3 1014.8 1006.2
03 20.09 ЮЗ 1 4000 м дымка ясно +3.9 +3.5 97 +2 +2 1015.4 1006.8 +3.6
06 20.09 ЮЗ 2 20 км 8/0
[Ac cast Cc]
+11.2 +6.9 75 +10 +13 1016.5 1008.1
09 20.09 З 3 20 км 8/8 1000 м
[Cb calv Cc]
+14.7 +5.1 53 +14 +15 1016.1 1007.8
12 20.09 З 2 20 км 8/8 1000 м
[Cb cap Ci fib]
+15.7 +4.5 47 +16 +16 1014.9 1006.6
15 20.09 штиль 0 10 км {ливн. осадки} 9/4 600 м
[Sc diur, vesp Ci ing]
+8.6 +7.5 93 +8 +8 1015.3 1006.9 +16.5 1
18 20.09 СЗ 2 10 км {ливн. осадки} 6/1 600 м
[Sc Cs]
+6.7 +5.9 95 +4 +4 1015.6 1007.1
21 20.09 В 1 10 км 9/0
[Ac As Cs]
+6.8 +6.0 95 +6 +6 1014.3 1005.8
00 21.09 С 1 10 км 10/0
[Cs]
+6.0 +5.3 95 +5 +5 1013.3 1004.8
03 21.09 ЮВ 2 20 км 10/4 600 м
[Cb cap Ac As Cs]
+7.2 +5.3 88 +5 +5 1012.3 1003.8 +5.7
06 21.09 Ю 2 20 км в посл. час дождь 10/0
[As op]
+9.6 +7.5 87 +8 +9 1011.4 1003.0
09 21.09 ЮЗ 1 20 км {дождь} 10/5 600 м
[Sc As op]
+11.5 +7.3 75 +11 +12 1009.2 1000.8
12 21.09 Ю 1 20 км {дождь} 10/4 600 м
[Cu Sc Ac As]
+12.5 +6.4 66 +13 +13 1007.4 999.1
15 21.09 штиль 0 10 км в посл. час дождь 10/6 300 м
[Sc As trans]
+8.7 +7.8 94 +8 +8 1007.4 999.0 +12.8 0.6
18 21.09 З 1 10 км в посл. час дождь 10/0
[As trans]
+7.6 +7.0 96 +7 +7 1007.0 998.5
21 21.09 СЗ 1 10 км в посл. час дождь 8/3 300 м
[Sc Ci fib]
+6.6 +5.5 93 +5 +5 1006.6 998.1
00 22.09 З 1 10 км {дождь} ясно +2.2 +1.8 97 0 0 1006.6 998.0
03 22.09 ЮЗ 1 20 км 8/0
[Ac trans]
+1.3 +1.2 99 -1 -1 1006.8 998.2 +0.4 0.7
06 22.09 ЮЗ 1 20 км 9/6 300 м
[Cb cap Ac trans]
+6.0 +4.7 91 +5 +6 1006.8 998.3
09 22.09 З 2 20 км в посл. час ливневой дождь 9/9 420 м
[Cb cap]
+8.8 +6.7 87 +7 +8 1005.5 997.1
12 22.09 З 3 20 км {ливн. осадки} 6/3 1000 м
[Cb cap Ac trans Ci sp]
+11.3 -0.6 44 +10 +11 1004.1 995.8
15 22.09 ЮЗ 4
{11}
4000 м слаб. дождь 10/5 600 м
[Frnb As op]
+8.3 +3.2 70 +5 +5 1002.2 993.8 +11.6 0.8

 

Местоположение метеостанции Первомайский (Оренбургская область, Россия): широта 51.90 долгота 51.65 высота над уровнем моря 70 м.

В архиве по умолчанию представлена погода в Первомайском за последнюю неделю. Архивные данные за месяц целиком и за предыдущие месяцы, начиная с января 2011 года, Вы можете получить, выбрав интересующий диапазон дат из раскрывающегося списка и нажав кнопку "Ввод!".


*Определитесь, кто Вы:
робот инопланетянин человек

Внимание! Время в таблицах - всемирное. Для получения местного времени необходимо прибавить поправку, которая равна 5 ч.

Смотрите также архив погоды в соседних городах и на ближайших метеорологических станциях:

Погода в Январцево (Западно-Казахстанская область, Казахстан) (57 км)
Погода в Уральске (Западно-Казахстанская область, Казахстан) (77 км)
Погода в Авангард Зерносовхозе (Самарская область, Россия) (84 км)
Погода в Перелюбе (Саратовская область, Россия) (91 км)
Погода в Большая Глушица (Самарская область, Россия) (97 км)
Погода в Бузулуке (Оренбургская область, Россия) (109 км)
Погода в Сорочинске (Оренбургская область, Россия) (117 км)
Погода в Анкаты (Западно-Казахстанская область, Казахстан) (121 км)
Погода в Аксае (Западно-Казахстанская область, Казахстан) (123 км)
Погода в Илеке (Оренбургская область, Россия) (126 км)

Пояснения к столбцам:

Ветер - указаны скорость ветра в м/с - средняя за 10 мин, порывы в срок и между сроками (в фигурных скобках) и направление, откуда дует ветер: С - северный, СВ - северо-восточный, В - восточный, ЮВ - юго-восточный, Ю - южный, ЮЗ - юго-западный, З - западный, СЗ - северо-западный.
Видимость - горизонтальная дальность видимости в метрах или километрах. При видимости от 1 до 10 км при отсутствии осадков обычно наблюдается дымка, при ухудшении видимости до 1 км и менее - туман. В сухую погоду видимость может ухудшаться дымом, пылью или мглою.
Явления - указаны атмосферные явления, наблюдавшиеся в срок или в последний час перед сроком; фигурными скобками обозначены явления, наблюдавшиеся между сроками (за 1-3 часа до срока); квадратными скобками обозначены град или гололедные отложения с указанием их диаметра в мм.
Облачность - указаны через наклонную черту общая и нижняя облачность в баллах и высота нижней границы облаков в метрах; квадратными скобками обозначены формы облаков: Ci - перистые, Cs - перисто-слоистые, Cc - перисто-кучевые, Ac - высококучевые, As - высокослоистые, Sc - слоисто-кучевые, Ns - слоисто-дождевые, Cu - кучевые, Cb - кучево-дождевые. Подробнее классификацию облаков см. в Атласе облаков (PDF).
T - Температура воздуха - температура, измеренная на высоте 2 м над землей.
Td - Температура точки росы - температура, при понижении до которой содержащийся в воздухе водяной пар достигнет насыщения.
f - Относительная влажность воздуха - влажноcть воздуха, измеренная на высоте 2 м над землей.
Te - Эффективная температура - температура, которую ощущает одетый по сезону человек в тени. Характеристика душности погоды. При расчете учитывается влияние влажности воздуха и скорости ветра на теплоощущения человека.
Tes - Эффективная температура на солнце - температура, которую ощущает человек, с поправкой на солнечный нагрев. Характеристика знойности погоды. Зависит от высоты солнца над горизонтом, облачности и скорости ветра. Ночью, в пасмурную погоду, а также при ветре 12 м/с и более поправка равна нулю.
P - Атмосферное давление - приведенное к уровню моря атмосферное давление.
Po - Атмосферное давление - измеренное на уровне метеостанции атмосферное давление.
Tmin - Минимальная температура - минимум температуры воздуха на высоте 2 м над землей.
Tmax - Максимальная температура - максимум температуры воздуха на высоте 2 м над землей.
R - Количество осадков - Количество выпавших осадков за период времени, мм. При наведении курсора мыши на число - период времени, за который выпало указанное количество осадков.
R24 - Количество осадков - Количество выпавших осадков за 24 часа, мм.
S - Снежный покров - Высота снежного покрова, см. При наведении курсора мыши на число - состояние снежного покрова и степень покрытия местности в баллах.